Content
SEND FEEDBACK

Daily
Averages
Monthly
Summary
Venezuela

MAIQUETIA, VENEZUELA


Home > South America > Venezuela
Elevation: 157 feet     Latitude: 10 36N     Longitude: 066 58W

WEATHER
 
SELECT A DAY
Number of Records: 124,950;   Date Range: 1/1/00 - 12/23/14
 
SHARE

PRINT THIS DATA

[ ← Previous Day ]
WEATHER ALMANAC - JANUARY 31, 2013
[ Next Day → ]
[ °C ]   °F
Weather ElementAverageHighLow
Temperature78.6 °F84.2 °F (7:30 am)73.4 °F (2:30 am)
Dewpoint73.1 °F80.6 °F (12:30 pm)66.2 °F (3:30 am)
Humidity83.3 %94 % (7:30 pm)55 % (7:30 am)
Barometer29.92 in29.98 in (12:30 pm)29.86 in (4:30 pm)
Wind Speed2.4 mph4.6 mph (9:30 am)
Weather ElementAverage
Visibility6.5 mi
Wind DirectionNNE (39.1 °)

Weather ElementTotal
Precipitation---
Cooling Degree Days13.8 (Base 65)
Growing Degree Days28.8 (Base 50)
Averaged from 23 records on January 31, 2013
WEATHER CONDITIONS BREAKOUT
WIND DIRECTION BREAKOUT
WEATHER BY HOUR - JANUARY 31, 2013
[ °C ]   °F
Local TimeTemperatureDewpointHumidityBarometerVisibilityWind DirectionWind SpeedGust SpeedPrecipitationEventsConditions
1:30 AM75.2 °F68.0 °F78 %29.95 in6.2 miCalmPartly Cloudy
2:30 AM73.4 °F68.0 °F83 %29.95 in6.2 miCalmPartly Cloudy
3:30 AM73.4 °F66.2 °F78 %29.95 in6.2 miCalmPartly Cloudy
4:30 AM73.4 °F66.2 °F78 %29.92 in6.2 miCalmPartly Cloudy
5:30 AM73.4 °F68.0 °F83 %29.92 in6.2 miCalmPartly Cloudy
6:30 AM73.4 °F68.0 °F83 %29.95 in6.2 miCalmPartly Cloudy
7:30 AM84.2 °F66.2 °F55 %29.92 in6.2 miCalmScattered Clouds
8:30 AM75.2 °F69.8 °F83 %29.92 in6.2 miCalmScattered Clouds
9:30 AM78.8 °F75.2 °F89 %29.95 in6.2 miENE (70°)4.6 mphScattered Clouds
10:30 AM82.4 °F77.0 °F84 %29.95 in6.2 miENE (70°)3.5 mphScattered Clouds
11:30 AM82.4 °F78.8 °F89 %29.95 in6.2 miENE (70°)3.5 mphScattered Clouds
12:30 PM84.2 °F80.6 °F89 %29.98 in6.2 miENE (70°)3.5 mphScattered Clouds
1:30 PM83.0 °F78.0 °F79 %29.91 in12.0 miENE (70°)4.5 mphPartly Cloudy
1:30 PM84.2 °F77.0 °F79 %29.92 in6.2 miENE (70°)4.6 mphScattered Clouds
2:30 PM78.8 °F75.2 °F89 %29.92 in6.2 miENE (70°)4.6 mphScattered Clouds
3:30 PM84.2 °F75.2 °F74 %29.89 in6.2 miENE (70°)3.5 mphScattered Clouds
4:30 PM82.4 °F75.2 °F79 %29.86 in6.2 miNE (50°)4.6 mphScattered Clouds
6:30 PM80.6 °F75.2 °F84 %29.89 in6.2 miNE (50°)4.6 mphScattered Clouds
7:30 PM77.0 °F75.2 °F94 %29.86 in6.2 miNE (50°)3.5 mphScattered Clouds
8:30 PM77.0 °F75.2 °F94 %29.89 in6.2 miNE (50°)3.5 mphScattered Clouds
9:30 PM77.0 °F75.2 °F94 %29.89 in6.2 miNE (50°)3.5 mphScattered Clouds
10:30 PM77.0 °F73.4 °F89 %29.92 in6.2 miNNE (20°)2.3 mphPartly Cloudy
11:30 PM77.0 °F73.4 °F89 %29.92 in6.2 miENE (70°)1.2 mphPartly Cloudy
Hourly data recorded from SVMI, located miles away from Maiquetia, Venezuela







STORIES FROM OUR PARTNERS